STARLINK-36713, 67701

Orbit data source: Space-Track

STARLINK-36713, 67701 is a payload satellite owned by SpaceX/Seattle (US) in SSO that was launched on Sat, 07 Feb 2026 UTC via an FALCON 9 launch vehicle from the Air Force Western Test Range (AFWTR). Payload-class satellites include a variety of spacecraft equipped with specific instruments for various scientific and technological missions. These include communications satellites like Starlink; space stations such as the ISS; scientific satellites like the Hubble; Earth observation satellites from companies like Planet Labs, Umbra, and HawkEye 360; GPS; miniature CubeSats for education and research; and military/defense satellites.

Loading next visibility...
Identifier
67701, 2026-025J
Orbit
SSO
Country
Flag of USUS
Related business
Manufacturer
SpaceX/Seattle
Mission
Operational spacecraft
Bus & Motor
STARLINK V2MO, Unknown motor
Mass
575 kg wet, ~530 kg dry
Launch date (UTC)
2026-02-07 (2 months ago)
Launch vehicle
FALCON 9
Launch site
Air Force Western Test Range (AFWTR)
Object type
Payload
Rocket body
Debris
Shape & HBR
Unknown shape, 17.7 m
Radar Cross Section
RCS unknown

Expand to show TLE details & history
Last TLE update: 6 hours ago

TLE from 6 hours ago
0 STARLINK-36713
1 67701U 26025J   26104.28170990  .00012434  00000-0  38648-3 0  9991
2 67701  97.2847 216.4120 0000459 292.8272  67.2923 15.33474574 11471
Epoch: 2026-04-14T06:45Z
TLE epoch observation values (Epoch: 2026-04-14T06:45:39.735Z)
Latitude
0.00006°
Longitude
-87.46377°
Altitude
468.446 km
Speed
7.632 km/s
True Right ascension
14h 25m 38s
True Declination
0° 00' 00"
Sunlit
Object was in full shadow at epoch
Visualization orbit readout
Latitude
Unknown
Longitude
Unknown
Altitude
Unknown
Speed
Unknown
Apparent Right ascension
Unknown
Apparent Declination
Unknown
Sunlit
N/A
Visualization observer readout
Local Sidereal Time
19:15:13
Azimuth
Unknown
Elevation
Unknown
Doppler factor
Unknown
Orbital elements
Apogee altitude
462.712 km
Perigee altitude
462.084 km
Semi-major axis
6,840.535 km
Eccentricity
0.00005
Inclination
97.2847°
RAAN
216.412°
Arg. of periapsis
292.8272°
True anomaly
67.29715°
Mean anomaly
67.2923°
Eccentric anomaly
67.29473°
Mean motion
3.83626 °/min
Orbital period
93.84 mins
BSTAR
0.00038648
Loading maneuver chart data...
Computing Atmospheric mass density...
Loading historical data...
Loading historical data...
Loading historical data...
Loading historical data...
Loading historical data...
Loading historical data...
Loading historical data...

Documentation

Showing up to 5 results
|